timestamp,wind_dir_avg,wind_spd_max_dir,wind_spd_avg,wind_spd_gust,battery_voltage,lat,long
2017-09-02 00:00:00+00:00,259.0,266.0,8.89,9.84,12.7,47.59359,-54.27349
2017-09-02 00:10:00+00:00,248.0,251.0,8.75,10.13,12.7,47.59359,-54.27349
2017-09-02 00:20:00+00:00,253.0,253.0,9.31,10.92,12.8,47.59359,-54.27349
2017-09-02 00:30:00+00:00,261.0,262.0,10.02,10.88,12.8,47.59359,-54.27349
2017-09-02 00:40:00+00:00,254.0,254.0,9.7,10.56,12.8,47.59359,-54.27349
2017-09-02 00:50:00+00:00,263.0,259.0,7.37,8.67,12.8,47.59359,-54.27349
2017-09-02 01:00:00+00:00,265.0,264.0,8.4,10.37,12.7,47.59359,-54.27349
2017-09-02 01:10:00+00:00,259.0,260.0,9.83,11.21,12.6,47.59359,-54.27349
2017-09-02 01:20:00+00:00,261.0,263.0,9.16,10.39,12.7,47.59359,-54.27349
2017-09-02 01:30:00+00:00,253.0,252.0,8.91,9.77,12.7,47.59359,-54.27349
2017-09-02 01:40:00+00:00,253.0,252.0,7.79,9.0,12.8,47.59359,-54.27349
2017-09-02 01:50:00+00:00,256.0,255.0,8.53,9.6,12.8,47.59359,-54.27349
2017-09-02 02:00:00+00:00,256.0,258.0,8.88,11.79,12.7,47.59359,-54.27349
2017-09-02 02:10:00+00:00,250.0,254.0,7.0,8.14,12.6,47.59359,-54.27349
2017-09-02 02:20:00+00:00,257.0,258.0,7.16,8.2,12.7,47.59359,-54.27349
2017-09-02 02:30:00+00:00,258.0,261.0,7.96,8.92,12.7,47.59359,-54.27349
2017-09-02 02:40:00+00:00,254.0,254.0,8.44,9.61,12.7,47.59359,-54.27349
2017-09-02 02:50:00+00:00,257.0,265.0,8.9,9.61,12.7,47.59359,-54.27349
2017-09-02 03:00:00+00:00,257.0,258.0,8.18,9.51,12.7,47.59359,-54.27349
2017-09-02 03:10:00+00:00,251.0,244.0,8.69,9.93,12.6,47.59359,-54.27349
2017-09-02 03:20:00+00:00,250.0,252.0,8.14,9.9,12.7,47.59359,-54.27349
2017-09-02 03:30:00+00:00,252.0,251.0,7.22,8.38,12.7,47.59359,-54.27349
2017-09-02 03:40:00+00:00,259.0,257.0,8.2,8.99,12.7,47.59359,-54.27349
2017-09-02 03:50:00+00:00,256.0,252.0,7.3,8.07,12.7,47.59359,-54.27349
2017-09-02 04:00:00+00:00,265.0,267.0,6.44,7.47,12.7,47.59359,-54.27349
2017-09-02 04:10:00+00:00,253.0,249.0,6.23,7.55,12.6,47.59359,-54.27349
2017-09-02 04:20:00+00:00,257.0,255.0,7.14,8.51,12.7,47.59359,-54.27349
2017-09-02 04:30:00+00:00,273.0,271.0,5.45,6.39,12.7,47.59359,-54.27349
2017-09-02 04:40:00+00:00,265.0,266.0,6.51,7.0,12.7,47.59359,-54.27349
2017-09-02 04:50:00+00:00,256.0,254.0,6.71,7.39,12.7,47.59359,-54.27349
2017-09-02 05:00:00+00:00,261.0,257.0,6.35,7.02,12.6,47.59359,-54.27349
2017-09-02 05:10:00+00:00,257.0,255.0,6.55,7.41,12.6,47.59359,-54.27349
2017-09-02 05:20:00+00:00,257.0,263.0,5.5,6.17,12.7,47.59359,-54.27349
2017-09-02 05:30:00+00:00,254.0,255.0,5.56,6.16,12.7,47.59359,-54.27349
2017-09-02 05:40:00+00:00,262.0,265.0,6.34,7.04,12.7,47.59359,-54.27349
2017-09-02 05:50:00+00:00,266.0,266.0,5.96,7.04,12.7,47.59359,-54.27349
2017-09-02 06:00:00+00:00,264.0,266.0,5.67,7.4,12.6,47.59359,-54.27349
2017-09-02 06:10:00+00:00,264.0,264.0,5.39,5.96,12.6,47.59359,-54.27349
2017-09-02 06:20:00+00:00,257.0,258.0,5.94,6.71,12.7,47.59359,-54.27349
2017-09-02 06:30:00+00:00,262.0,257.0,5.75,6.35,12.7,47.59359,-54.27349
2017-09-02 06:40:00+00:00,262.0,264.0,5.49,6.36,12.7,47.59359,-54.27349
2017-09-02 06:50:00+00:00,245.0,251.0,6.47,8.33,12.7,47.59359,-54.27349
2017-09-02 07:00:00+00:00,247.0,248.0,6.04,7.21,12.6,47.59359,-54.27349
2017-09-02 07:10:00+00:00,253.0,250.0,6.53,7.69,12.6,47.59359,-54.27349
2017-09-02 07:20:00+00:00,265.0,266.0,6.31,7.06,12.7,47.59359,-54.27349
2017-09-02 07:30:00+00:00,266.0,267.0,7.05,7.76,12.7,47.59359,-54.27349
2017-09-02 07:40:00+00:00,266.0,265.0,6.75,7.71,12.7,47.59359,-54.27349
2017-09-02 07:50:00+00:00,261.0,269.0,5.79,6.86,12.7,47.59359,-54.27349
2017-09-02 08:00:00+00:00,253.0,253.0,6.44,6.97,12.6,47.59359,-54.27349
2017-09-02 08:10:00+00:00,262.0,262.0,6.75,7.27,12.6,47.59359,-54.27349
2017-09-02 08:20:00+00:00,259.0,261.0,6.75,7.53,12.7,47.59359,-54.27349
2017-09-02 08:30:00+00:00,262.0,259.0,7.29,8.08,12.7,47.59359,-54.27349
2017-09-02 08:40:00+00:00,263.0,258.0,6.34,7.23,12.7,47.59359,-54.27349
2017-09-02 08:50:00+00:00,256.0,258.0,6.58,7.27,12.7,47.59359,-54.27349
2017-09-02 09:00:00+00:00,271.0,273.0,5.92,6.77,12.6,47.59359,-54.27349
2017-09-02 09:10:00+00:00,256.0,255.0,5.43,5.76,12.6,47.59359,-54.27349
2017-09-02 09:20:00+00:00,266.0,265.0,6.01,6.74,12.7,47.59359,-54.27349
2017-09-02 09:30:00+00:00,255.0,254.0,7.0,7.55,12.7,47.59359,-54.27349
2017-09-02 09:40:00+00:00,264.0,264.0,6.84,7.44,12.7,47.59359,-54.27349
2017-09-02 09:50:00+00:00,258.0,262.0,5.94,7.1,12.8,47.59359,-54.27349
2017-09-02 10:00:00+00:00,258.0,261.0,6.93,7.56,13.0,47.59359,-54.27349
2017-09-02 10:10:00+00:00,255.0,258.0,7.18,7.68,13.1,47.59359,-54.27349
2017-09-02 10:20:00+00:00,257.0,258.0,6.77,7.78,13.4,47.59359,-54.27349
2017-09-02 10:30:00+00:00,256.0,256.0,6.52,7.17,13.4,47.59359,-54.27349
2017-09-02 10:40:00+00:00,257.0,259.0,6.78,7.63,14.1,47.59359,-54.27349
2017-09-02 10:50:00+00:00,257.0,252.0,7.34,8.37,14.2,47.59359,-54.27349
2017-09-02 11:00:00+00:00,255.0,251.0,6.53,7.58,13.5,47.59359,-54.27349
2017-09-02 11:10:00+00:00,257.0,258.0,7.16,7.63,13.4,47.59359,-54.27349
2017-09-02 11:20:00+00:00,255.0,259.0,7.59,8.45,14.0,47.59359,-54.27349
2017-09-02 11:30:00+00:00,256.0,257.0,7.19,7.83,13.7,47.59359,-54.27349
2017-09-02 11:40:00+00:00,249.0,250.0,8.06,8.57,13.7,47.59359,-54.27349
2017-09-02 11:50:00+00:00,247.0,250.0,7.19,8.0,13.8,47.59359,-54.27349
2017-09-02 12:00:00+00:00,244.0,241.0,6.54,7.43,13.9,47.59359,-54.27349
2017-09-02 12:10:00+00:00,250.0,249.0,7.47,8.66,13.8,47.59359,-54.27349
2017-09-02 12:20:00+00:00,254.0,266.0,8.11,9.46,13.9,47.59359,-54.27349
2017-09-02 12:30:00+00:00,251.0,257.0,7.99,9.09,13.8,47.59359,-54.27349
2017-09-02 12:40:00+00:00,245.0,246.0,8.07,9.62,13.8,47.59359,-54.27349
2017-09-02 12:50:00+00:00,247.0,249.0,7.64,9.44,13.8,47.59359,-54.27349
2017-09-02 13:00:00+00:00,246.0,251.0,8.27,10.05,13.6,47.59359,-54.27349
2017-09-02 13:10:00+00:00,248.0,257.0,9.33,10.87,13.5,47.59359,-54.27349
2017-09-02 13:20:00+00:00,253.0,253.0,9.44,10.47,13.9,47.59359,-54.27349
2017-09-02 13:30:00+00:00,263.0,270.0,9.14,10.24,13.8,47.59359,-54.27349
2017-09-02 13:40:00+00:00,248.0,250.0,8.49,9.92,13.9,47.59359,-54.27349
2017-09-02 13:50:00+00:00,241.0,244.0,7.82,9.54,13.7,47.59359,-54.27349
2017-09-02 14:00:00+00:00,251.0,252.0,9.05,10.27,13.8,47.59359,-54.27349
2017-09-02 14:10:00+00:00,242.0,248.0,8.23,9.5,13.9,47.59359,-54.27349
2017-09-02 14:20:00+00:00,244.0,242.0,7.33,9.52,13.8,47.59359,-54.27349
2017-09-02 14:30:00+00:00,234.0,232.0,8.09,9.64,13.7,47.59359,-54.27349
2017-09-02 14:40:00+00:00,234.0,234.0,10.07,11.35,13.9,47.59359,-54.27349
2017-09-02 14:50:00+00:00,242.0,252.0,7.19,8.51,13.8,47.59359,-54.27349
2017-09-02 15:00:00+00:00,242.0,248.0,8.57,9.75,13.8,47.59359,-54.27349
2017-09-02 15:10:00+00:00,248.0,249.0,10.3,12.31,13.9,47.59359,-54.27349
2017-09-02 15:20:00+00:00,249.0,246.0,9.6,11.75,13.8,47.59359,-54.27349
2017-09-02 15:30:00+00:00,260.0,259.0,10.06,12.95,13.8,47.59359,-54.27349
2017-09-02 15:40:00+00:00,248.0,244.0,9.62,11.01,13.8,47.59359,-54.27349
2017-09-02 15:50:00+00:00,252.0,255.0,9.91,11.35,13.8,47.59359,-54.27349
2017-09-02 16:00:00+00:00,244.0,236.0,8.92,10.53,13.6,47.59359,-54.27349
2017-09-02 16:10:00+00:00,255.0,243.0,10.76,11.84,13.8,47.59359,-54.27349
2017-09-02 16:20:00+00:00,260.0,260.0,9.21,10.92,14.0,47.59359,-54.27349
2017-09-02 16:30:00+00:00,267.0,266.0,12.67,14.77,13.6,47.59359,-54.27349
2017-09-02 16:40:00+00:00,267.0,267.0,12.5,14.5,13.8,47.59359,-54.27349
2017-09-02 16:50:00+00:00,258.0,262.0,15.16,19.17,13.8,47.59359,-54.27349
2017-09-02 17:00:00+00:00,262.0,262.0,11.85,13.71,13.6,47.59359,-54.27349
2017-09-02 17:10:00+00:00,261.0,256.0,11.26,12.61,13.4,47.59359,-54.27349
2017-09-02 17:20:00+00:00,261.0,268.0,9.36,11.07,13.8,47.59359,-54.27349
2017-09-02 17:30:00+00:00,263.0,265.0,9.11,10.57,14.0,47.59359,-54.27349
2017-09-02 17:40:00+00:00,266.0,258.0,10.17,11.94,14.1,47.59359,-54.27349
2017-09-02 17:50:00+00:00,267.0,269.0,8.66,9.54,13.7,47.59359,-54.27349
2017-09-02 18:00:00+00:00,251.0,249.0,8.77,9.71,13.6,47.59359,-54.27349
2017-09-02 18:10:00+00:00,247.0,253.0,8.01,10.28,13.8,47.59359,-54.27349
2017-09-02 18:20:00+00:00,245.0,243.0,7.45,9.02,13.8,47.59359,-54.27349
2017-09-02 18:30:00+00:00,231.0,234.0,7.07,8.61,13.6,47.59359,-54.27349
2017-09-02 18:40:00+00:00,226.0,228.0,8.1,10.43,13.7,47.59359,-54.27349
2017-09-02 18:50:00+00:00,262.0,265.0,8.63,10.71,13.7,47.59359,-54.27349
2017-09-02 19:00:00+00:00,266.0,268.0,8.82,10.03,13.9,47.59359,-54.27349
2017-09-02 19:10:00+00:00,268.0,268.0,12.15,13.46,14.0,47.59359,-54.27349
2017-09-02 19:20:00+00:00,269.0,272.0,9.51,10.53,13.9,47.59359,-54.27349
2017-09-02 19:30:00+00:00,270.0,270.0,9.46,10.44,13.9,47.59359,-54.27349
2017-09-02 19:40:00+00:00,268.0,271.0,9.02,9.97,13.8,47.59359,-54.27349
2017-09-02 19:50:00+00:00,270.0,278.0,9.95,11.33,13.8,47.59359,-54.27349
2017-09-02 20:00:00+00:00,278.0,274.0,8.43,10.34,13.5,47.59359,-54.27349
2017-09-02 20:10:00+00:00,271.0,271.0,7.38,8.4,13.3,47.59359,-54.27349
2017-09-02 20:20:00+00:00,278.0,275.0,9.65,11.27,13.4,47.59359,-54.27349
2017-09-02 20:30:00+00:00,273.0,278.0,7.54,8.79,13.4,47.59359,-54.27349
2017-09-02 20:40:00+00:00,272.0,275.0,8.06,9.36,13.5,47.59359,-54.27349
2017-09-02 20:50:00+00:00,279.0,276.0,8.4,9.38,13.5,47.59359,-54.27349
2017-09-02 21:00:00+00:00,273.0,268.0,8.68,10.03,13.4,47.59359,-54.27349
2017-09-02 21:10:00+00:00,279.0,281.0,7.54,8.61,13.3,47.59359,-54.27349
2017-09-02 21:20:00+00:00,282.0,280.0,8.23,10.27,13.3,47.59359,-54.27349
2017-09-02 21:30:00+00:00,308.0,325.0,7.46,8.87,13.3,47.59359,-54.27349
2017-09-02 21:40:00+00:00,356.0,358.0,9.69,11.29,13.2,47.59359,-54.27349
2017-09-02 21:50:00+00:00,0.0,5.0,9.05,10.73,13.1,47.59359,-54.27349
2017-09-02 22:00:00+00:00,356.0,356.0,10.96,12.56,13.0,47.59359,-54.27349
2017-09-02 22:10:00+00:00,359.0,0.0,11.92,13.94,12.8,47.59359,-54.27349
2017-09-02 22:20:00+00:00,4.0,6.0,10.83,13.25,12.9,47.59359,-54.27349
2017-09-02 22:30:00+00:00,4.0,15.0,12.42,14.39,12.8,47.59359,-54.27349
2017-09-02 22:40:00+00:00,353.0,352.0,10.85,12.47,12.8,47.59359,-54.27349
2017-09-02 22:50:00+00:00,346.0,348.0,8.64,10.2,12.8,47.59359,-54.27349
2017-09-02 23:00:00+00:00,352.0,346.0,10.25,11.08,12.7,47.59359,-54.27349
2017-09-02 23:10:00+00:00,356.0,349.0,9.41,10.95,12.6,47.59359,-54.27349
2017-09-02 23:20:00+00:00,352.0,350.0,9.3,10.83,12.7,47.59359,-54.27349
2017-09-02 23:30:00+00:00,357.0,1.0,11.48,12.77,12.7,47.59359,-54.27349
2017-09-02 23:40:00+00:00,13.0,7.0,10.54,12.89,12.8,47.59359,-54.27349
2017-09-02 23:50:00+00:00,11.0,9.0,10.77,12.51,12.8,47.59359,-54.27349
